| time (UTC) | temp F | wind direction | speed MPH | gust MPH | rain 1hr in | rain 24hr in | rain mn in | humidity % | barometer mb |
| 20260506004016 | 54 | 0.0 | 3.0 | 0.00 | 0.00 | 0.00 | 39 | 1007.9 | |
| 20260506003016 | 54 | 0.0 | 2.0 | 0.00 | 0.00 | 0.00 | 38 | 1007.9 | |
| 20260506002016 | 54 | 338 | 1.0 | 3.0 | 0.00 | 0.00 | 0.00 | 39 | 1007.7 |
| 20260506001016 | 55 | 293 | 1.0 | 2.0 | 0.00 | 0.00 | 0.00 | 37 | 1008.0 |
| 20260506000016 | 55 | 315 | 1.0 | 4.0 | 0.00 | 0.00 | 0.00 | 36 | 1007.9 |
| 20260505235017 | 55 | 338 | 1.0 | 3.0 | 0.00 | 0.00 | 0.00 | 37 | 1007.8 |
| 20260505234016 | 55 | 293 | 1.0 | 4.0 | 0.00 | 0.00 | 0.00 | 37 | 1007.8 |
| 20260505233016 | 55 | 0.0 | 2.0 | 0.00 | 0.00 | 0.00 | 36 | 1008.0 | |
| 20260505232017 | 55 | 315 | 1.0 | 2.0 | 0.00 | 0.00 | 0.00 | 35 | 1007.9 |
| 20260505231016 | 55 | 315 | 1.0 | 2.0 | 0.00 | 0.00 | 0.00 | 37 | 1008.0 |
| 20260505230016 | 55 | 293 | 1.0 | 3.0 | 0.00 | 0.00 | 0.00 | 36 | 1008.1 |
| 20260505225016 | 55 | 315 | 1.0 | 3.0 | 0.00 | 0.00 | 0.00 | 35 | 1008.2 |
| 20260505224016 | 55 | 0 | 1.0 | 3.0 | 0.00 | 0.01 | 0.00 | 35 | 1008.3 |
| 20260505223016 | 55 | 315 | 1.0 | 4.0 | 0.00 | 0.01 | 0.00 | 35 | 1008.2 |
| 20260505222016 | 55 | 315 | 1.0 | 3.0 | 0.00 | 0.01 | 0.00 | 34 | 1008.1 |
| 20260505221016 | 56 | 338 | 1.0 | 3.0 | 0.00 | 0.01 | 0.00 | 35 | 1008.1 |
| 20260505220016 | 56 | 225 | 1.0 | 3.0 | 0.00 | 0.01 | 0.00 | 35 | 1008.4 |
| 20260505215016 | 56 | 293 | 2.0 | 4.0 | 0.00 | 0.01 | 0.00 | 34 | 1008.5 |
| 20260505214016 | 56 | 338 | 1.0 | 3.0 | 0.00 | 0.01 | 0.00 | 34 | 1008.3 |
| 20260505213016 | 56 | 293 | 1.0 | 5.0 | 0.00 | 0.01 | 0.00 | 34 | 1008.2 |
| 20260505212016 | 56 | 270 | 2.0 | 6.0 | 0.00 | 0.01 | 0.00 | 35 | 1008.1 |
| 20260505211016 | 56 | 315 | 1.0 | 7.0 | 0.00 | 0.01 | 0.00 | 34 | 1008.2 |
| 20260505210016 | 56 | 0.0 | 2.0 | 0.00 | 0.01 | 0.00 | 33 | 1008.2 | |
| 20260505205016 | 56 | 293 | 1.0 | 3.0 | 0.00 | 0.01 | 0.00 | 35 | 1008.2 |
| 20260505204016 | 56 | 315 | 1.0 | 3.0 | 0.00 | 0.01 | 0.00 | 31 | 1008.4 |
| 20260505203016 | 56 | 293 | 1.0 | 3.0 | 0.00 | 0.01 | 0.00 | 31 | 1008.5 |
| 20260505202016 | 56 | 293 | 1.0 | 3.0 | 0.00 | 0.01 | 0.00 | 33 | 1008.6 |
| 20260505201016 | 56 | 0 | 2.0 | 4.0 | 0.00 | 0.01 | 0.00 | 34 | 1008.6 |
| 20260505200016 | 56 | 315 | 2.0 | 8.0 | 0.00 | 0.01 | 0.00 | 32 | 1008.7 |
| 20260505195016 | 57 | 293 | 2.0 | 6.0 | 0.00 | 0.01 | 0.00 | 33 | 1008.7 |
| 20260505194016 | 57 | 315 | 2.0 | 4.0 | 0.00 | 0.01 | 0.00 | 31 | 1008.6 |
| 20260505193016 | 57 | 315 | 2.0 | 4.0 | 0.00 | 0.01 | 0.00 | 29 | 1008.6 |
| 20260505192016 | 57 | 293 | 1.0 | 4.0 | 0.00 | 0.01 | 0.00 | 33 | 1008.8 |
| 20260505191016 | 57 | 270 | 1.0 | 4.0 | 0.00 | 0.01 | 0.00 | 33 | 1008.8 |
| 20260505190016 | 57 | 315 | 1.0 | 4.0 | 0.00 | 0.01 | 0.00 | 37 | 1008.8 |
| 20260505185016 | 57 | 270 | 2.0 | 4.0 | 0.00 | 0.01 | 0.00 | 30 | 1008.8 |
| 20260505184016 | 56 | 248 | 1.0 | 3.0 | 0.00 | 0.01 | 0.00 | 33 | 1008.8 |
| 20260505183016 | 56 | 225 | 2.0 | 10.0 | 0.00 | 0.01 | 0.00 | 34 | 1008.8 |
| 20260505182016 | 56 | 225 | 3.0 | 10.0 | 0.00 | 0.01 | 0.00 | 31 | 1008.8 |
| 20260505181016 | 56 | 270 | 2.0 | 4.0 | 0.00 | 0.01 | 0.00 | 36 | 1008.8 |
| 20260505180016 | 56 | 315 | 1.0 | 4.0 | 0.00 | 0.01 | 0.00 | 32 | 1008.6 |
| 20260505175016 | 56 | 203 | 2.0 | 5.0 | 0.00 | 0.01 | 0.00 | 37 | 1008.5 |
| 20260505174016 | 56 | 0 | 2.0 | 4.0 | 0.00 | 0.01 | 0.00 | 35 | 1008.5 |
| 20260505173016 | 56 | 0 | 1.0 | 4.0 | 0.00 | 0.01 | 0.00 | 35 | 1008.5 |
| 20260505172016 | 56 | 0 | 2.0 | 4.0 | 0.00 | 0.01 | 0.00 | 35 | 1008.4 |
| 20260505171016 | 56 | 0 | 2.0 | 6.0 | 0.00 | 0.01 | 0.00 | 36 | 1008.4 |
| 20260505170016 | 55 | 0 | 2.0 | 5.0 | 0.00 | 0.01 | 0.00 | 34 | 1008.2 |
| 20260505165016 | 55 | 0 | 1.0 | 5.0 | 0.00 | 0.01 | 0.00 | 39 | 1008.4 |
| 20260505164016 | 54 | 0 | 2.0 | 5.0 | 0.00 | 0.01 | 0.00 | 37 | 1008.6 |
| 20260505163016 | 54 | 338 | 2.0 | 4.0 | 0.00 | 0.01 | 0.00 | 38 | 1008.5 |
| 20260505162016 | 53 | 270 | 1.0 | 3.0 | 0.00 | 0.01 | 0.00 | 38 | 1008.3 |
| 20260505161016 | 53 | 0 | 2.0 | 7.0 | 0.00 | 0.01 | 0.00 | 35 | 1008.2 |
| 20260505153016 | 53 | 315 | 2.0 | 4.0 | 0.00 | 0.01 | 0.00 | 45 | 1007.9 |
| 20260505152016 | 53 | 203 | 1.0 | 4.0 | 0.00 | 0.01 | 0.00 | 41 | 1008.1 |
| 20260505151016 | 52 | 270 | 1.0 | 3.0 | 0.00 | 0.01 | 0.00 | 44 | 1008.3 |
| 20260505125016 | 49 | 0.0 | 0.0 | 0.00 | 0.01 | 0.00 | 54 | 1008.4 | |
| 20260505124016 | 49 | 0.0 | 2.0 | 0.00 | 0.01 | 0.00 | 53 | 1008.1 | |
| 20260505123016 | 49 | 0.0 | 0.0 | 0.00 | 0.01 | 0.00 | 51 | 1008.3 | |
| 20260505122016 | 49 | 338 | 1.0 | 2.0 | 0.00 | 0.01 | 0.00 | 52 | 1008.7 |
| 20260505121016 | 49 | 0.0 | 2.0 | 0.00 | 0.01 | 0.00 | 49 | 1007.9 | |
| 20260505120016 | 49 | 0.0 | 1.0 | 0.00 | 0.01 | 0.00 | 49 | 1008.4 | |
| 20260505115016 | 49 | 315 | 1.0 | 2.0 | 0.00 | 0.01 | 0.00 | 49 | 1008.0 |
| 20260505114015 | 49 | 0.0 | 2.0 | 0.00 | 0.01 | 0.00 | 49 | 1007.6 | |
| 20260505113016 | 49 | 90 | 1.0 | 3.0 | 0.00 | 0.01 | 0.00 | 49 | 1006.7 |
| 20260505112016 | 49 | 338 | 1.0 | 3.0 | 0.00 | 0.01 | 0.00 | 49 | 1007.0 |
| 20260505111016 | 49 | 0 | 1.0 | 4.0 | 0.00 | 0.01 | 0.00 | 48 | 1006.5 |
| 20260505102016 | 51 | 315 | 1.0 | 2.0 | 0.00 | 0.01 | 0.00 | 50 | 1006.1 |
| 20260505101016 | 51 | 23 | 1.0 | 2.0 | 0.00 | 0.01 | 0.00 | 50 | 1005.9 |
| 20260505100016 | 51 | 338 | 2.0 | 5.0 | 0.00 | 0.01 | 0.00 | 49 | 1005.9 |
| 20260505095016 | 52 | 0 | 1.0 | 4.0 | 0.00 | 0.01 | 0.00 | 48 | 1005.8 |
| 20260505094016 | 52 | 0 | 2.0 | 5.0 | 0.00 | 0.01 | 0.00 | 47 | 1006.2 |
| 20260505093016 | 52 | 0 | 1.0 | 2.0 | 0.00 | 0.01 | 0.00 | 47 | 1006.3 |
| 20260505092016 | 52 | 0 | 2.0 | 4.0 | 0.00 | 0.01 | 0.00 | 46 | 1006.0 |
| 20260505091016 | 53 | 0 | 1.0 | 4.0 | 0.00 | 0.01 | 0.00 | 46 | 1005.6 |
| 20260505090016 | 53 | 0 | 2.0 | 8.0 | 0.00 | 0.01 | 0.00 | 45 | 1005.4 |
| 20260505085016 | 53 | 0 | 2.0 | 4.0 | 0.00 | 0.01 | 0.00 | 44 | 1005.2 |
| 20260505084016 | 53 | 0 | 2.0 | 5.0 | 0.00 | 0.01 | 0.00 | 44 | 1004.9 |
| 20260505083016 | 54 | 0 | 3.0 | 6.0 | 0.00 | 0.01 | 0.00 | 43 | 1004.8 |
| 20260505082016 | 54 | 0 | 4.0 | 12.0 | 0.00 | 0.01 | 0.00 | 43 | 1004.6 |
| 20260505081016 | 55 | 0 | 3.0 | 8.0 | 0.00 | 0.01 | 0.00 | 44 | 1004.1 |
| 20260505080015 | 56 | 0 | 2.0 | 5.0 | 0.00 | 0.01 | 0.00 | 43 | 1003.9 |
| 20260505075016 | 57 | 0 | 1.0 | 2.0 | 0.00 | 0.01 | 0.00 | 42 | 1003.4 |
| 20260505074016 | 57 | 0 | 2.0 | 6.0 | 0.00 | 0.01 | 0.00 | 41 | 1003.3 |
| 20260505073016 | 58 | 0.0 | 2.0 | 0.00 | 0.01 | 0.00 | 41 | 1003.5 | |
| 20260505072016 | 58 | 0 | 1.0 | 4.0 | 0.00 | 0.01 | 0.00 | 39 | 1003.5 |
| 20260505071016 | 58 | 0 | 1.0 | 3.0 | 0.00 | 0.01 | 0.00 | 40 | 1003.3 |
| 20260505070016 | 58 | 315 | 1.0 | 2.0 | 0.00 | 0.01 | 0.00 | 40 | 1002.9 |
| 20260505065015 | 58 | 338 | 1.0 | 5.0 | 0.00 | 0.01 | 0.00 | 39 | 1002.7 |
| 20260505064016 | 58 | 0.0 | 2.0 | 0.00 | 0.01 | 0.00 | 39 | 1002.6 | |
| 20260505063015 | 59 | 0.0 | 2.0 | 0.00 | 0.01 | 0.00 | 40 | 1003.0 | |
| 20260505062016 | 59 | 0 | 1.0 | 4.0 | 0.00 | 0.01 | 0.00 | 38 | 1003.0 |
| 20260505061016 | 59 | 0 | 1.0 | 2.0 | 0.00 | 0.01 | 0.00 | 38 | 1002.7 |
| 20260505060016 | 60 | 0 | 1.0 | 3.0 | 0.00 | 0.01 | 0.00 | 37 | 1002.5 |
| 20260505055020 | 60 | 0 | 2.0 | 5.0 | 0.00 | 0.01 | 0.00 | 36 | 1002.6 |
| 20260505054016 | 60 | 0 | 1.0 | 3.0 | 0.00 | 0.01 | 0.00 | 36 | 1002.6 |
| 20260505053016 | 61 | 0 | 2.0 | 4.0 | 0.00 | 0.01 | 0.00 | 35 | 1002.3 |
| 20260505052016 | 61 | 0 | 2.0 | 4.0 | 0.00 | 0.01 | 0.00 | 35 | 1002.1 |
| 20260505051016 | 61 | 0 | 1.0 | 4.0 | 0.00 | 0.01 | 0.00 | 35 | 1001.9 |
| 20260505041016 | 63 | 0 | 1.0 | 3.0 | 0.00 | 0.01 | 0.01 | 44 | 1001.3 |
| 20260505040017 | 62 | 0 | 2.0 | 5.0 | 0.00 | 0.01 | 0.01 | 49 | 1001.2 |
| 20260505035017 | 61 | 0 | 1.0 | 2.0 | 0.00 | 0.01 | 0.01 | 60 | 1001.0 |
| 20260505034017 | 62 | 0.0 | 2.0 | 0.00 | 0.01 | 0.01 | 67 | 1000.7 | |
| 20260505033016 | 62 | 0.0 | 2.0 | 0.00 | 0.01 | 0.01 | 67 | 1000.6 | |
| 20260505032016 | 62 | 0.0 | 2.0 | 0.00 | 0.01 | 0.01 | 67 | 1000.4 | |
| 20260505031016 | 62 | 0.0 | 3.0 | 0.00 | 0.01 | 0.01 | 68 | 1000.5 | |
| 20260505030016 | 62 | 0 | 1.0 | 4.0 | 0.00 | 0.01 | 0.01 | 68 | 1000.6 |
| 20260505025017 | 63 | 0 | 2.0 | 6.0 | 0.00 | 0.01 | 0.01 | 68 | 1000.5 |
| 20260505024016 | 63 | 0 | 2.0 | 4.0 | 0.00 | 0.01 | 0.01 | 68 | 1000.3 |
| 20260505023016 | 63 | 0 | 2.0 | 4.0 | 0.00 | 0.01 | 0.01 | 67 | 999.9 |
| 20260505022016 | 64 | 0 | 1.0 | 9.0 | 0.00 | 0.01 | 0.01 | 66 | 999.6 |
| 20260505021016 | 64 | 0.0 | 0.0 | 0.00 | 0.01 | 0.01 | 66 | 999.1 | |
| 20260505020016 | 64 | 0.0 | 0.0 | 0.00 | 0.01 | 0.01 | 66 | 999.0 | |
| 20260505015017 | 64 | 0.0 | 0.0 | 0.00 | 0.01 | 0.01 | 65 | 998.8 | |
| 20260505014016 | 64 | 0.0 | 0.0 | 0.00 | 0.01 | 0.01 | 67 | 998.6 | |
| 20260505013016 | 64 | 0.0 | 0.0 | 0.00 | 0.01 | 0.01 | 69 | 998.5 | |
| 20260505012016 | 64 | 0.0 | 0.0 | 0.00 | 0.01 | 0.01 | 70 | 998.4 | |
| 20260505011016 | 66 | 0.0 | 0.0 | 0.00 | 0.01 | 0.01 | 67 | 998.4 | |
| 20260505010017 | 66 | 0.0 | 0.0 | 0.00 | 0.01 | 0.01 | 64 | 998.3 | |
| 20260505005017 | 66 | 0.0 | 0.0 | 0.00 | 0.01 | 0.01 | 62 | 998.0 |